Flag for Iran Weather past 2 weeks in Sanandaj, Iran

77 °F

Scattered clouds.

Feels Like: 77 °F
Forecast: 60 / 76 °F
Wind: 24 mph from South

Location: Sanandaj Airport

Current Time: Oct 7, 2015 at 1:52:50 PM

Latest Report: Oct 7, 2015 at 1:30 PM

Visibility: 5 mi

Pressure: 29.98 "Hg (25.24 "Hg at 1502m altitude)

Humidity: 26%

Dew point: 39 °F

Location of SanandajLocation

Historic Weather in Sanandaj — Graph


Sanandaj temperature yesterday

Maximum temperature yesterday: 86 °F (at 1:30 PM)
Minimum temperature yesterday: 50 °F (at 5:56 AM)
Average temperature yesterday: 68 °F

Past Weeks' High & Low Weather Summary

High93 °F (Sep 24, 3:30 PM)100% (Oct 5, 7:00 AM)30.45 "Hg (Oct 5, 7:00 AM)
Low34 °F (Oct 5, 7:00 AM)5% (Sep 23, 1:22 PM)29.92 "Hg (Oct 7, 4:24 AM)
Average71 °F26%30.12 "Hg
* Reported Sep 22 12:30 PM — Oct 7 12:30 PM, Sanandaj, Weather by CustomWeather, © 2015

Note: Actual official high and low records may vary slightly from our data, if they occured in-between our weather recording intervals... More about our weather records


Sanandaj weather history for previous 24 hours

Time TempWeatherWind HumidityBarometerVisibility
12:30 PM
Wed, Oct 7
73 °FPassing clouds.16 mph33%29.98 "Hg5 mi
12:00 PM72 °FScattered clouds.12 mph38%30.01 "Hg4 mi
11:30 AM64 °FScattered showers. Broken clouds.14 mph56%30.07 "Hg3 mi
11:00 AM64 °FScattered showers. Broken clouds.12 mph60%30.07 "Hg3 mi
10:30 AM68 °FSprinkles. Broken clouds.20 mph40%30.07 "Hg2 mi
9:30 AM68 °FSprinkles. Broken clouds.23 mph40%30.04 "Hg2 mi
9:00 AM68 °FScattered clouds.18 mph38%30.04 "Hg4 mi
8:30 AM64 °FSprinkles. Broken clouds.22 mph49%30.04 "Hg2 mi
8:00 AM73 °FBroken clouds.23 mph23%30.01 "Hg4 mi
7:30 AM73 °FScattered clouds.18 mph22%29.98 "Hg4 mi
7:00 AM70 °FScattered clouds.7 mph25%29.95 "Hg5 mi
6:30 AM70 °FPassing clouds.9 mph25%29.95 "HgN/A
5:25 AM72 °FPassing clouds.14 mph23%29.95 "HgN/A
4:24 AM68 °FPassing clouds.7 mph28%29.92 "HgN/A
3:24 AM72 °FPassing clouds.5 mph23%29.95 "HgN/A
2:22 AM63 °FPassing clouds.5 mph27%29.95 "HgN/A
1:23 AM61 °FPassing clouds.5 mph34%29.95 "HgN/A
12:24 AM63 °FPassing clouds.5 mph32%29.95 "HgN/A
11:24 PM
Tue, Oct 6
64 °FPassing clouds.5 mph30%29.98 "HgN/A
10:22 PM68 °FPassing clouds.5 mph26%29.98 "HgN/A
9:24 PM72 °FPassing clouds.5 mph20%30.01 "HgN/A
8:22 PM75 °FPassing clouds.7 mph15%30.01 "HgN/A
7:23 PM75 °FPassing clouds.7 mph15%29.98 "HgN/A
6:30 PM81 °FPassing clouds.14 mph12%29.98 "HgN/A
5:30 PM82 °FScattered clouds.16 mph12%29.95 "HgN/A
4:30 PM82 °FScattered clouds.9 mph12%29.95 "HgN/A
3:30 PM84 °FScattered clouds.16 mph10%29.98 "HgN/A
2:30 PM86 °FScattered clouds.16 mph10%29.98 "HgN/A
1:30 PM86 °FScattered clouds.9 mph11%30.01 "HgN/A
Weather by CustomWeather, © 2015

See weather overviewHow to use our weather pages